Погода в Джиндже

Уганда     0°26′04″N   33°12′34″E
темп.,
°C
ветер,
м/с
пор.,
м/с
влажн.,
%
обл.,
%
осадки,
мм/ч
давл.,
гПа
погр.,
м
12 августа, пт
пт1200:00+19ююв117785 0.0 101263
03:00+20ссв1276100 0.1 101171
06:00+19в227998 0.1 101281
09:00+23ссв2365100 0.1 1014520
12:00+28ююв224489 0.0 10121955
15:00+24ююз4661100 0.0 1010411
18:00+23ююз366299 0.0 1010463
21:00+21ююз126866 0.0 101253
13 августа, сб
сб1300:00+19св117790 0.0 101341
03:00+19ссв127778 0.0 101144
06:00+18с128299 0.1 101261
09:00+20с258298 0.4 1014283
12:00+24с346428 2.1 1012763
15:00+24сз236547 4.7 10101029
18:00+22ю118161 2.5 101153
21:00+19ссв119097 4.5 101342
14 августа, вс
вс1400:00+18с2695100 0.9 1014198
03:00+17с269679 0.9 1013168
06:00+17ссв2597100 0.0 1013145
09:00+20с388797 0.0 1014438
12:00+25ссз236274 0.3 1013999
15:00+28ююв224649 0.9 10091673
18:00+21зсз248385 0.5 1010156
21:00+18сз119239 0.9 101227
15 августа, пн
пн1500:00+18с229391 0.0 101253
03:00+17с239586 0.1 101172
06:00+17ссз129680 0.0 101255
09:00+19с248767 0.0 1013223
12:00+28ссз23496 0.0 10111493
15:00+25в1158100 0.3 100852
18:00+20ссз1287100 1.6 101063
21:00+19с3889100 1.9 1012219
16 августа, вт
вт1600:00+18ссз1294100 0.4 101369
03:00+17с1195100 1.8 101264
06:00+18ссз2896100 0.2 1013324
09:00+19с3993100 0.3 1015521
12:00+22ссв3575100 0.5 1014946
15:00+20ссв3684100 1.6 1012518
18:00+18с2593100 0.2 1013231
21:00+17ссв2593100 0.2 1014211